GW3329 Weather Reports


time (UTC)temp
C
wind
direction
speed
KPH
gust
KPH
rain 1hr
cm
rain 24hr
cm
rain mn
cm
humidity
%
barometer
mb
20260904100246 13 147 0.0 0.0 0.00 0.00 0.00 95 1016.1
20260904095746 13 134 0.0 0.0 0.00 0.00 0.00 95 1015.9
20260904095241 13 152 0.0 0.0 0.00 0.00 0.00 94 1016.1
20260904094736 14 152 0.0 0.0 0.00 0.00 0.00 94 1016.2
20260904094231 14 152 0.0 0.0 0.00 0.00 0.00 94 1016.1
20260904093728 14 151 0.0 0.0 0.00 0.00 0.00 94 1016.1
20260904093227 14 151 0.0 0.0 0.00 0.00 0.00 94 1016.0
20260904092723 14 151 0.0 0.0 0.00 0.00 0.00 94 1016.1
20260904092219 14 151 0.0 0.0 0.00 0.00 0.00 93 1016.1
20260904091714 14 151 0.0 0.0 0.00 0.00 0.00 93 1016.1
20260904091210 14 151 0.0 0.0 0.00 0.00 0.00 93 1016.1
20260904090705 14 151 0.0 0.0 0.00 0.00 0.00 93 1016.0
20260904090201 15 151 0.0 0.0 0.00 0.00 0.00 93 1016.0
20260904085655 15 151 0.0 0.0 0.00 0.00 0.00 92 1015.9
20260904085150 15 151 0.0 0.0 0.00 0.00 0.00 92 1016.0
20260904084645 15 151 0.0 0.0 0.00 0.00 0.00 92 1016.2
20260904084142 15 151 0.0 0.0 0.00 0.00 0.00 92 1016.1
20260904083638 15 151 0.0 0.0 0.00 0.00 0.00 92 1016.3
20260904083133 15 151 0.0 0.0 0.00 0.00 0.00 92 1016.2
20260904082628 15 151 0.0 0.0 0.00 0.00 0.00 92 1016.1
20260904082124 15 151 0.0 0.0 0.00 0.00 0.00 92 1016.2
20260904081619 15 151 0.0 0.0 0.00 0.00 0.00 92 1016.5
20260904081114 15 151 0.0 0.0 0.00 0.00 0.00 92 1016.2
20260904080610 15 151 0.0 0.0 0.00 0.00 0.00 92 1016.6
20260904080106 15 151 0.0 0.0 0.00 0.00 0.00 92 1016.4
20260904075601 15 151 0.0 0.0 0.00 0.00 0.00 92 1016.3
20260904075055 15 152 0.0 0.0 0.00 0.00 0.00 92 1016.5
20260904074555 15 151 0.0 0.0 0.00 0.00 0.00 93 1016.4
20260904074050 15 149 0.0 0.0 0.00 0.00 0.00 92 1016.5
20260904073544 15 171 0.0 0.0 0.00 0.00 0.00 92 1016.7
20260904073041 15 171 0.0 0.0 0.00 0.00 0.00 92 1016.4
20260904072536 15 171 0.0 0.0 0.00 0.00 0.00 92 1016.5
20260904072031 15 166 0.0 0.0 0.00 0.00 0.00 92 1016.5
20260904071526 15 166 0.0 0.0 0.00 0.00 0.00 93 1016.4
20260904071021 15 157 0.0 0.0 0.00 0.00 0.00 92 1016.5
20260904070521 15 157 0.0 0.0 0.00 0.00 0.00 92 1016.3
20260904070016 15 157 0.0 0.0 0.00 0.00 0.00 93 1016.1
20260904065511 15 157 0.0 0.0 0.00 0.00 0.00 93 1016.3
20260904065007 15 157 0.0 0.0 0.00 0.00 0.00 93 1016.3
20260904064503 15 157 0.0 0.0 0.00 0.00 0.00 93 1016.3
20260904064002 15 157 0.0 0.0 0.00 0.00 0.00 93 1016.3
20260904063459 15 157 0.0 0.0 0.00 0.00 0.00 93 1016.2
20260904062954 15 157 0.0 0.0 0.00 0.00 0.00 93 1016.2
20260904062450 15 155 0.0 0.0 0.00 0.00 0.00 93 1016.2
20260904061945 16 155 0.0 0.0 0.00 0.00 0.00 93 1016.0
20260904061442 15 155 0.0 0.0 0.00 0.00 0.00 92 1016.2
20260904060937 15 152 0.0 0.0 0.00 0.00 0.00 92 1016.2
20260904060433 16 155 0.0 0.0 0.00 0.00 0.00 92 1016.4
20260904055929 16 155 0.0 0.0 0.00 0.00 0.00 92 1016.2
20260904055424 16 153 0.0 0.0 0.00 0.00 0.00 92 1016.3
20260904054920 16 155 0.0 0.0 0.00 0.00 0.00 92 1016.1
20260904054415 16 153 0.0 0.0 0.00 0.00 0.00 92 1016.4
20260904053911 16 153 0.0 0.0 0.00 0.00 0.00 92 1016.3
20260904053410 16 153 0.0 0.0 0.00 0.00 0.00 92 1016.2
20260904052906 16 153 0.0 0.0 0.00 0.00 0.00 91 1016.5
20260904052402 16 153 0.0 0.0 0.00 0.00 0.00 91 1016.4
20260904051859 16 153 0.0 0.0 0.00 0.00 0.00 91 1016.5
20260904051354 16 153 0.0 0.0 0.00 0.00 0.00 91 1016.4
20260904050848 16 153 0.0 0.0 0.00 0.00 0.00 90 1016.8
20260904050345 16 153 0.0 0.0 0.00 0.00 0.00 90 1016.7
20260904045839 16 152 0.0 0.0 0.00 0.00 0.00 89 1016.7
20260904045334 16 153 0.0 0.0 0.00 0.00 0.00 88 1016.6
20260904044829 17 152 0.0 0.0 0.00 0.00 0.00 87 1016.3
20260904044325 17 163 0.0 0.0 0.00 0.00 0.00 87 1016.7
20260904043821 17 162 0.0 0.0 0.00 0.00 0.00 88 1016.5
20260904043317 17 168 0.0 0.0 0.00 0.00 0.00 89 1016.6
20260904042812 17 167 0.0 0.0 0.00 0.00 0.00 88 1016.5
20260904042309 17 176 0.0 0.0 0.00 0.00 0.00 88 1016.4
20260904041808 17 170 0.0 0.0 0.00 0.00 0.00 87 1016.6
20260904041305 17 169 0.0 0.0 0.00 0.00 0.00 87 1016.5
20260904040800 17 183 1.6 1.6 0.00 0.00 0.00 87 1016.3
20260904040256 17 187 0.0 0.0 0.00 0.00 0.00 86 1016.4
20260904035751 17 157 0.0 0.0 0.00 0.00 0.00 86 1016.2
20260904035247 17 166 0.0 0.0 0.00 0.00 0.00 85 1016.3
20260904034746 17 162 0.0 0.0 0.00 0.00 0.00 85 1016.5
20260904034241 17 158 0.0 0.0 0.00 0.00 0.00 84 1016.2
20260904033736 17 167 0.0 0.0 0.00 0.00 0.00 84 1016.3
20260904033233 17 162 0.0 0.0 0.00 0.00 0.00 84 1016.2
20260904032729 17 162 0.0 0.0 0.00 0.00 0.00 83 1016.0
20260904032228 18 158 0.0 0.0 0.00 0.00 0.00 83 1016.2
20260904031723 18 162 0.0 0.0 0.00 0.00 0.00 82 1016.3
20260904031218 18 160 0.0 0.0 0.00 0.00 0.00 82 1016.0
20260904030714 18 161 0.0 1.6 0.00 0.00 0.00 82 1015.9
20260904030209 18 170 0.0 0.0 0.00 0.00 0.00 81 1016.1
20260904025706 18 155 0.0 1.6 0.00 0.00 0.00 81 1016.0
20260904025200 18 131 0.0 0.0 0.00 0.00 0.00 80 1015.9
20260904024656 18 128 0.0 1.6 0.00 0.00 0.00 80 1015.9
20260904024151 18 178 0.0 1.6 0.00 0.00 0.00 79 1015.9
20260904023647 18 144 0.0 1.6 0.00 0.00 0.00 78 1015.7
20260904023143 19 190 0.0 3.2 0.00 0.00 0.00 78 1015.8
20260904022642 19 208 3.2 6.4 0.00 0.00 0.00 77 1015.8
20260904022139 19 178 0.0 1.6 0.00 0.00 0.00 77 1015.9
20260904021635 20 249 3.2 3.2 0.00 0.00 0.00 76 1015.9
20260904021125 20 178 1.6 9.7 0.00 0.00 0.00 75 1015.8
20260904020621 20 103 1.6 3.2 0.00 0.00 0.00 75 1015.7
20260904020115 20 245 3.2 3.2 0.00 0.00 0.00 74 1015.8
20260904015615 20 141 0.0 3.2 0.00 0.00 0.00 73 1015.7
20260904015113 20 53 0.0 3.2 0.00 0.00 0.00 73 1015.5
20260904014607 21 92 1.6 4.8 0.00 0.00 0.00 72 1015.6
20260904014103 21 203 1.6 1.6 0.00 0.00 0.00 72 1015.8
20260904013600 21 155 0.0 1.6 0.00 0.00 0.00 72 1015.8
20260904013056 21 148 0.0 4.8 0.00 0.00 0.00 71 1015.8
20260904012556 21 178 3.2 4.8 0.00 0.00 0.00 70 1015.7
20260904012056 22 231 1.6 3.2 0.00 0.00 0.00 69 1015.9
20260904011550 22 102 1.6 6.4 0.00 0.00 0.00 69 1015.9
20260904011045 22 8 1.6 4.8 0.00 0.00 0.00 68 1015.9
20260904010541 22 259 4.8 9.7 0.00 0.00 0.00 69 1016.0
20260904010037 22 257 6.4 9.7 0.00 0.00 0.00 68 1015.9
20260904005532 22 133 0.0 6.4 0.00 0.00 0.00 68 1015.8
20260904005027 23 291 6.4 6.4 0.00 0.00 0.00 67 1015.8
20260904004523 23 235 4.8 4.8 0.00 0.00 0.00 67 1016.0
20260904004022 23 262 6.4 6.4 0.00 0.00 0.00 67 1016.1
20260904003519 23 38 3.2 11.3 0.00 0.00 0.00 67 1015.9
20260904003014 23 168 3.2 11.3 0.00 0.00 0.00 67 1015.7
20260904002510 23 265 1.6 4.8 0.00 0.00 0.00 67 1015.8
20260904002009 23 171 4.8 9.7 0.00 0.00 0.00 66 1015.9
20260904001505 23 250 4.8 6.4 0.00 0.00 0.00 67 1016.0
20260904000959 23 265 4.8 9.7 0.00 0.00 0.00 67 1015.8
20260904000458 23 201 4.8 9.7 0.00 0.00 0.00 67 1015.8
20260903235954 23 202 1.6 9.7 0.00 0.00 0.00 66 1015.7
20260903235449 24 297 4.8 11.3 0.00 0.00 0.00 66 1016.0
20260903234944 25 260 6.4 9.7 0.00 0.00 0.00 65 1016.0
20260903234440 24 291 3.2 16.1 0.00 0.00 0.00 65 1016.1
20260903233936 24 269 4.8 9.7 0.00 0.00 0.00 65 1015.9
20260903233431 24 242 6.4 9.7 0.00 0.00 0.00 65 1015.9
20260903232926 25 307 3.2 9.7 0.00 0.00 0.00 65 1016.1
20260903232420 25 171 3.2 6.4 0.00 0.00 0.00 64 1016.0
20260903231915 25 287 3.2 9.7 0.00 0.00 0.00 64 1016.1
20260903231410 25 305 6.4 9.7 0.00 0.00 0.00 64 1016.2
20260903230905 25 159 8.0 14.5 0.00 0.00 0.00 64 1016.1
20260903230400 25 125 4.8 9.7 0.00 0.00 0.00 64 1016.1
20260903225856 25 266 3.2 6.4 0.00 0.00 0.00 63 1016.1
20260903225352 26 13 4.8 14.5 0.00 0.00 0.00 63 1016.2
20260903224848 26 46 3.2 4.8 0.00 0.00 0.00 63 1016.1
20260903224344 26 97 4.8 12.9 0.00 0.00 0.00 62 1016.4
20260903223839 26 249 1.6 3.2 0.00 0.00 0.00 62 1016.3
20260903223337 26 189 4.8 6.4 0.00 0.00 0.00 63 1016.2
20260903222832 26 14 3.2 4.8 0.00 0.00 0.00 63 1016.4
20260903222327 26 138 1.6 4.8 0.00 0.00 0.00 63 1016.1
20260903221821 26 224 3.2 4.8 0.00 0.00 0.00 61 1016.5
20260903221320 26 269 6.4 12.9 0.00 0.00 0.00 61 1016.2
20260903220818 26 158 6.4 9.7 0.00 0.00 0.00 63 1016.4
20260903220312 26 276 9.7 16.1 0.00 0.00 0.00 63 1016.6
20260903215810 26 187 3.2 6.4 0.00 0.00 0.00 62 1016.6
20260903215308 26 218 6.4 9.7 0.00 0.00 0.00 62 1016.5
20260903214805 26 264 9.7 14.5 0.00 0.00 0.00 62 1016.7
20260903214302 26 51 3.2 6.4 0.00 0.00 0.00 63 1016.5
20260903213756 26 112 3.2 12.9 0.00 0.00 0.00 63 1016.5
20260903213251 26 354 3.2 9.7 0.00 0.00 0.00 63 1016.4
20260903212742 26 156 1.6 6.4 0.00 0.00 0.00 64 1016.5
20260903212238 26 285 6.4 11.3 0.00 0.00 0.00 64 1016.6
20260903211731 26 191 3.2 6.4 0.00 0.00 0.00 64 1016.6
20260903211228 25 13 1.6 9.7 0.00 0.00 0.00 66 1016.8
20260903210724 26 15 6.4 11.3 0.00 0.00 0.00 64 1016.9
20260903210219 26 53 1.6 6.4 0.00 0.00 0.00 65 1016.9
20260903205719 26 265 8.0 12.9 0.00 0.00 0.00 64 1016.7
20260903205218 26 127 3.2 11.3 0.00 0.00 0.00 64 1017.0
20260903204713 26 242 4.8 12.9 0.00 0.00 0.00 65 1016.7
20260903204210 26 98 0.0 6.4 0.00 0.00 0.00 66 1016.8
20260903203705 25 223 6.4 11.3 0.00 0.00 0.00 65 1016.7
20260903203201 26 244 6.4 12.9 0.00 0.00 0.00 64 1017.0
20260903202654 26 260 6.4 12.9 0.00 0.00 0.00 63 1016.9
20260903202150 26 223 3.2 6.4 0.00 0.00 0.00 63 1016.8
20260903201644 26 167 3.2 9.7 0.00 0.00 0.00 64 1016.8
20260903201143 26 63 1.6 14.5 0.00 0.00 0.00 64 1016.8
20260903200638 26 201 4.8 6.4 0.00 0.00 0.00 63 1016.9
20260903200133 26 258 6.4 9.7 0.00 0.00 0.00 63 1016.9
20260903195629 26 183 1.6 9.7 0.00 0.00 0.00 63 1017.0
20260903195125 26 91 1.6 9.7 0.00 0.00 0.00 64 1017.2
20260903194620 26 243 4.8 14.5 0.00 0.00 0.00 63 1017.1
20260903194120 26 54 1.6 11.3 0.00 0.00 0.00 63 1017.2
20260903193616 26 197 1.6 3.2 0.00 0.00 0.00 62 1017.1
20260903193111 26 160 3.2 4.8 0.00 0.00 0.00 62 1017.1
20260903192609 26 203 6.4 9.7 0.00 0.00 0.00 62 1017.4
20260903192108 26 244 11.3 12.9 0.00 0.00 0.00 63 1017.1
20260903191605 26 289 6.4 9.7 0.00 0.00 0.00 61 1017.3
20260903191059 26 284 6.4 11.3 0.00 0.00 0.00 61 1017.3
20260903190559 26 108 3.2 6.4 0.00 0.00 0.00 62 1017.3
20260903190059 27 308 9.7 11.3 0.00 0.00 0.00 58 1017.5
20260903185554 26 155 0.0 1.6 0.00 0.00 0.00 60 1017.5
20260903185049 26 102 0.0 3.2 0.00 0.00 0.00 60 1017.9
20260903184545 26 104 0.0 4.8 0.00 0.00 0.00 59 1017.6
20260903184040 26 56 0.0 4.8 0.00 0.00 0.00 58 1017.7
20260903183539 26 30 3.2 3.2 0.00 0.00 0.00 58 1017.7
20260903183035 26 107 1.6 3.2 0.00 0.00 0.00 57 1017.8
20260903182533 26 165 1.6 6.4 0.00 0.00 0.00 58 1017.8
20260903182030 26 59 1.6 3.2 0.00 0.00 0.00 59 1017.8
20260903181528 26 138 1.6 4.8 0.00 0.00 0.00 59 1017.8
20260903181023 26 121 1.6 6.4 0.00 0.00 0.00 59 1017.7
20260903180519 25 97 3.2 4.8 0.00 0.00 0.00 59 1017.7
20260903180018 25 67 0.0 3.2 0.00 0.00 0.00 60 1017.9
20260903175517 25 186 4.8 6.4 0.00 0.00 0.00 59 1017.9
20260903175017 25 151 0.0 1.6 0.00 0.00 0.00 62 1017.9
20260903174511 25 186 1.6 3.2 0.00 0.00 0.00 60 1017.9
20260903174006 25 158 3.2 4.8 0.00 0.00 0.00 62 1018.1
20260903173501 24 102 1.6 4.8 0.00 0.00 0.00 64 1017.9
20260903172957 25 132 1.6 3.2 0.00 0.00 0.00 63 1017.9
20260903172457 24 137 0.0 1.6 0.00 0.00 0.00 64 1018.1
20260903171952 23 71 0.0 1.6 0.00 0.00 0.00 66 1018.2
20260903171447 23 90 3.2 4.8 0.00 0.00 0.00 66 1018.0
20260903170942 23 109 0.0 4.8 0.00 0.00 0.00 67 1018.1
20260903170437 23 89 3.2 3.2 0.00 0.00 0.00 67 1018.0
20260903165936 23 116 1.6 3.2 0.00 0.00 0.00 67 1018.2
20260903165430 22 133 1.6 3.2 0.00 0.00 0.00 68 1018.1
20260903164924 22 89 0.0 6.4 0.00 0.00 0.00 68 1018.0
20260903164419 23 118 1.6 6.4 0.00 0.00 0.00 70 1017.9
20260903163919 22 57 3.2 3.2 0.00 0.00 0.00 70 1018.0
20260903163415 22 90 1.6 4.8 0.00 0.00 0.00 72 1018.0
20260903162911 22 80 6.4 11.3 0.00 0.00 0.00 72 1018.1
20260903162408 22 86 3.2 9.7 0.00 0.00 0.00 72 1018.1
20260903161903 21 141 3.2 9.7 0.00 0.00 0.00 74 1018.1
20260903161358 21 146 3.2 9.7 0.00 0.00 0.00 74 1018.0
20260903160854 21 147 0.0 4.8 0.00 0.00 0.00 76 1018.0
20260903160353 21 98 3.2 6.4 0.00 0.00 0.00 76 1018.0
20260903155851 21 141 3.2 6.4 0.00 0.00 0.00 77 1018.1
20260903155347 20 109 1.6 6.4 0.00 0.00 0.00 78 1018.2
20260903154842 20 71 3.2 4.8 0.00 0.00 0.00 79 1018.2
20260903154338 20 136 1.6 9.7 0.00 0.00 0.00 80 1018.0
20260903153833 20 89 3.2 9.7 0.00 0.00 0.00 80 1018.2
20260903153329 20 108 1.6 1.6 0.00 0.00 0.00 80 1018.3
20260903152826 20 147 1.6 6.4 0.00 0.00 0.00 81 1018.0
20260903152321 20 77 3.2 3.2 0.00 0.00 0.00 82 1018.0
20260903151816 19 177 4.8 9.7 0.00 0.00 0.00 82 1018.2
20260903151312 19 149 0.0 4.8 0.00 0.00 0.00 83 1018.2
20260903150812 18 74 4.8 4.8 0.00 0.00 0.00 83 1018.0
20260903150311 18 146 4.8 6.4 0.00 0.00 0.00 83 1018.1
20260903145806 18 111 3.2 6.4 0.00 0.00 0.00 84 1018.1
20260903145305 18 136 0.0 3.2 0.00 0.00 0.00 84 1018.1
20260903144800 18 110 0.0 1.6 0.00 0.00 0.00 85 1018.1
20260903144256 18 127 0.0 1.6 0.00 0.00 0.00 85 1018.1
20260903143752 17 125 0.0 1.6 0.00 0.00 0.00 86 1018.1
20260903143248 17 118 0.0 1.6 0.00 0.00 0.00 86 1018.1
20260903142743 16 128 0.0 1.6 0.00 0.00 0.00 86 1018.0
20260903142239 16 121 0.0 0.0 0.00 0.00 0.00 87 1017.6
20260903141735 16 124 0.0 0.0 0.00 0.00 0.00 88 1017.9
20260903141230 15 121 0.0 0.0 0.00 0.00 0.00 89 1017.8
20260903140725 15 147 0.0 0.0 0.00 0.00 0.00 91 1017.7
20260903140220 15 141 0.0 0.0 0.00 0.00 0.00 92 1017.6
20260903135716 14 164 1.6 3.2 0.00 0.00 0.00 93 1017.8
20260903135211 13 149 0.0 0.0 0.00 0.00 0.00 93 1017.9
20260903134710 13 157 0.0 0.0 0.00 0.00 0.00 94 1017.8
20260903134206 13 149 0.0 0.0 0.00 0.00 0.00 93 1017.8
20260903133704 13 148 0.0 0.0 0.00 0.00 0.00 93 1017.8
20260903133200 13 149 0.0 0.0 0.00 0.00 0.00 93 1017.8
20260903132700 13 140 0.0 0.0 0.00 0.00 0.00 94 1017.7
20260903132154 13 136 0.0 0.0 0.00 0.00 0.00 94 1017.7
20260903131649 13 143 0.0 0.0 0.00 0.00 0.00 94 1017.6
20260903131148 13 142 0.0 0.0 0.00 0.00 0.00 94 1017.7
20260903130643 13 146 0.0 0.0 0.00 0.00 0.00 94 1017.6
20260903130138 13 159 0.0 0.0 0.00 0.00 0.00 94 1017.8
20260903125636 13 159 0.0 0.0 0.00 0.00 0.00 94 1017.7
20260903125131 13 159 0.0 0.0 0.00 0.00 0.00 93 1017.6
20260903124625 13 159 0.0 0.0 0.00 0.00 0.00 93 1017.5
20260903124119 13 159 0.0 0.0 0.00 0.00 0.00 93 1017.8
20260903123614 13 159 0.0 0.0 0.00 0.00 0.00 93 1017.6
20260903123113 13 159 0.0 0.0 0.00 0.00 0.00 93 1017.8
20260903122613 13 159 0.0 0.0 0.00 0.00 0.00 93 1017.6
20260903122112 13 159 0.0 0.0 0.00 0.00 0.00 93 1017.7
20260903121607 13 160 0.0 0.0 0.00 0.00 0.00 93 1017.6
20260903121102 13 153 0.0 0.0 0.00 0.00 0.00 93 1017.6
20260903120600 13 153 0.0 0.0 0.00 0.00 0.00 93 1017.9
20260903120050 13 157 0.0 0.0 0.00 0.00 0.00 93 1017.8
20260903115549 13 157 0.0 0.0 0.00 0.00 0.00 93 1017.8
20260903115044 13 155 0.0 0.0 0.00 0.00 0.00 93 1017.8
20260903114539 13 153 0.0 0.0 0.00 0.00 0.00 93 1017.9
20260903114035 13 148 0.0 0.0 0.00 0.00 0.00 93 1017.9
20260903113530 13 153 0.0 0.0 0.00 0.00 0.00 93 1017.9
20260903113026 13 166 0.0 0.0 0.00 0.00 0.00 94 1017.7
20260903112521 13 149 0.0 0.0 0.00 0.00 0.00 94 1017.8
20260903112016 13 149 0.0 0.0 0.00 0.00 0.00 94 1017.7
20260903111515 13 149 0.0 0.0 0.00 0.00 0.00 94 1017.9
20260903111011 13 149 0.0 0.0 0.00 0.00 0.00 94 1017.9
20260903110507 14 149 0.0 0.0 0.00 0.00 0.00 95 1017.8
20260903110007 14 149 0.0 0.0 0.00 0.00 0.00 95 1018.0
20260903105501 14 149 0.0 0.0 0.00 0.00 0.00 95 1018.0
20260903104956 14 149 0.0 0.0 0.00 0.00 0.00 96 1018.2
20260903104456 14 149 0.0 0.0 0.00 0.00 0.00 96 1018.3
20260903103953 14 149 0.0 0.0 0.00 0.00 0.00 96 1018.1
20260903103448 14 149 0.0 0.0 0.00 0.00 0.00 96 1018.2
20260903102944 14 149 0.0 0.0 0.00 0.00 0.00 96 1017.9
20260903102439 14 149 0.0 0.0 0.00 0.00 0.00 96 1018.1
20260903101937 14 149 0.0 0.0 0.00 0.00 0.00 96 1018.3
20260903101433 14 149 0.0 0.0 0.00 0.00 0.00 96 1018.0
20260903100928 14 147 0.0 0.0 0.00 0.00 0.00 96 1017.8